Location: Sungai Bunut
(2.6333°N, 113.7333°E)
Time: 15:43:35
(UTC+00:00)

Cosmos 1697 Rocket - Pass Details

Date: 24 May 2022
Orbit: 833 x 843 km, 71.0° (Epoch: 03 July)

Event Time Altitude Azimuth Distance (km) Brightness Sun altitude
Rises 10:47:46 0° 161° (SSE) 3,388 5.5 -5.1°
Reaches altitude 10° 10:51:22 10° 138° (SE) 2,453 4.6 -5.9°
Maximum altitude 10:54:23 15° 105° (ESE) 2,135 4.2 -6.6°
Drops below altitude 10° 10:57:24 10° 72° (ENE) 2,452 4.7 -7.3°
Sets 11:00:58 0° 49° (NE) 3,385 5.6 -8.2°
